Weather History for Luxor, Egypt

Change the Weather History Date:

Thursday, June 13, 2013

  Actual Average Record
Temperature  
Mean Temperature 92 °F -  
Max Temperature 103 °F 102 °F - ()
Min Temperature 81 °F 75 °F - ()
Cooling Degree Days 27    
Growing Degree Days 42 (Base 50)    
Moisture  
Dew Point 55 °F    
Average Humidity 27    
Maximum Humidity 42    
Minimum Humidity 11    
Precipitation  
Precipitation 0.00 in 0.00 in - ()
Sea Level Pressure  
Sea Level Pressure 29.73 in    
Wind  
Wind Speed 4 mph ()    
Max Wind Speed 12 mph    
Max Gust Speed -    
Visibility 6.0 miles    
Events      
T = Trace of Precipitation, MM = Missing Value Source: Averaged Metar Reports

Daily Weather History Graph

Daily Weather History Graph

Search for Another Location

Airport:

Trip Planner

Search our weather history database for the weather conditions in past years. The results will help you decide how hot, cold, wet, or windy it might be!

Date:

Astronomy

Jun. 13, 2013 Rise Set
Actual Time 4:57 AM EET 6:41 PM EET
Civil Twilight 4:31 AM EET 7:07 PM EET
Nautical Twilight 4:00 AM EET 7:38 PM EET
Astronomical Twilight 3:27 AM EET 8:11 PM EET
Moon 8:54 AM EET (6/13) 10:00 PM EET (6/13)
Length of Visible Light 14h 35m
Length of Day
13h 43m
Waxing Crescent, 19% of the Moon is Illuminated
Jun 13
Waxing Crescent
Jun 16
First Quarter
Jun 23
Full
Jun 30
Last Quarter
Jul 8
New

Hourly Weather History & Observations

Time (EET) Temp. Heat Index Dew Point Humidity Pressure Visibility Wind Dir Wind Speed Gust Speed Precip Events Conditions
12:00 AM 96.8 °F 95.1 °F 55.4 °F 25% 29.71 in - NE 4.6 mph - N/A   Clear
1:00 AM 93.2 °F 91.3 °F 55.4 °F 28% 29.71 in - North 2.3 mph - N/A   Clear
2:00 AM 89 °F - 54 °F 21% 29.70 in 6 mi Calm Calm - -  
2:00 AM 89.6 °F 87.7 °F 55.4 °F 31% 29.71 in - Calm Calm - N/A   Clear
3:00 AM 86.0 °F 84.5 °F 55.4 °F 35% 29.71 in - WNW 3.5 mph - N/A   Clear
4:00 AM 84.2 °F 83.5 °F 57.2 °F 40% 29.71 in - WSW 4.6 mph - N/A   Clear
5:00 AM 82.4 °F 82.0 °F 57.2 °F 42% 29.74 in - WSW 4.6 mph - N/A   Clear
6:00 AM 82.4 °F 82.0 °F 57.2 °F 42% 29.74 in - SW 3.5 mph - N/A   Clear
7:00 AM 87.8 °F 86.1 °F 55.4 °F 33% 29.74 in - WSW 1.2 mph - N/A   Clear
8:00 AM 90 °F - 57 °F 23% 29.76 in 6 mi West 2.3 mph - -  
8:00 AM 91.4 °F 89.9 °F 57.2 °F 31% 29.77 in - West 2.3 mph - N/A   Clear
9:00 AM 93.2 °F 91.9 °F 57.2 °F 30% 29.77 in - NNW 6.9 mph - N/A   Clear
10:00 AM 95.0 °F 93.0 °F 55.4 °F 26% 29.77 in - NNW 4.6 mph - N/A   Clear
11:00 AM 96.8 °F 95.1 °F 55.4 °F 25% 29.77 in - North 4.6 mph - N/A   Clear
12:00 PM 98.6 °F 97.2 °F 55.4 °F 24% 29.74 in - NW 6.9 mph - N/A   Clear
1:00 PM 102.2 °F 100.9 °F 55.4 °F 21% 29.74 in - NW 5.8 mph - N/A   Clear
1:32 PM 98.6 °F 97.2 °F 55.4 °F 24% 29.74 in - NW 6.9 mph - N/A   Clear
2:00 PM 103 °F - 53 °F 11% 29.70 in 6 mi West 8.1 mph - -  
2:00 PM 102.2 °F - 51.8 °F 18% 29.71 in - West 8.1 mph - N/A   Clear
3:00 PM 102.2 °F 100.4 °F 53.6 °F 20% 29.71 in - WNW 10.4 mph - N/A   Clear
4:00 PM 102.2 °F 100.4 °F 53.6 °F 20% 29.71 in - WNW 10.4 mph - N/A   Clear
5:00 PM 100.4 °F 98.4 °F 53.6 °F 21% 29.68 in - WNW 9.2 mph - N/A   Clear
6:00 PM 96.8 °F 95.1 °F 55.4 °F 25% 29.71 in - WNW 9.2 mph - N/A   Clear
7:00 PM 93.2 °F 91.3 °F 55.4 °F 28% 29.71 in - WNW 8.1 mph - N/A   Clear
8:00 PM 91 °F - 53 °F 18% 29.72 in 6 mi WNW 11.5 mph - -  
8:00 PM 91.4 °F 89.1 °F 53.6 °F 28% 29.74 in - WNW 11.5 mph - N/A   Clear
9:00 PM 87.8 °F 85.7 °F 53.6 °F 31% 29.74 in - WNW 3.5 mph - N/A   Clear
10:00 PM 86.0 °F 84.2 °F 53.6 °F 33% 29.77 in - WNW 3.5 mph - N/A   Clear
11:00 PM 86.0 °F 84.2 °F 53.6 °F 33% 29.77 in - Calm Calm - N/A   Clear